Year,Month,Day,Hour,Minute,Value (Times are PST for temperature in C)
2016,08,26,00,00,17.60
2016,08,26,00,01,17.60
2016,08,26,00,02,17.50
2016,08,26,00,03,17.50
2016,08,26,00,04,17.50
2016,08,26,00,05,17.40
2016,08,26,00,06,17.40
2016,08,26,00,07,17.40
2016,08,26,00,08,17.40
2016,08,26,00,09,17.40
2016,08,26,00,10,17.40
2016,08,26,00,11,17.40
2016,08,26,00,12,17.40
2016,08,26,00,13,17.50
2016,08,26,00,14,17.50
2016,08,26,00,15,17.60
2016,08,26,00,16,17.60
2016,08,26,00,17,17.70
2016,08,26,00,18,17.70
2016,08,26,00,19,17.70
2016,08,26,00,20,17.80
2016,08,26,00,21,17.80
2016,08,26,00,22,17.80
2016,08,26,00,23,17.80
2016,08,26,00,24,17.80
2016,08,26,00,25,17.80
2016,08,26,00,26,17.80
2016,08,26,00,27,17.80
2016,08,26,00,28,17.80
2016,08,26,00,29,17.80
2016,08,26,00,30,17.70
2016,08,26,00,31,17.70
2016,08,26,00,32,17.70
2016,08,26,00,33,17.70
2016,08,26,00,34,17.70
2016,08,26,00,35,17.70
2016,08,26,00,36,17.70
2016,08,26,00,37,17.60
2016,08,26,00,38,17.60
2016,08,26,00,39,17.60
2016,08,26,00,40,17.60
2016,08,26,00,41,17.50
2016,08,26,00,42,17.50
2016,08,26,00,43,17.50
2016,08,26,00,44,17.40
2016,08,26,00,45,17.40
2016,08,26,00,46,17.40
2016,08,26,00,47,17.40
2016,08,26,00,48,17.30
2016,08,26,00,49,17.40
2016,08,26,00,50,17.40
2016,08,26,00,51,17.40
2016,08,26,00,52,17.50
2016,08,26,00,53,17.50
2016,08,26,00,54,17.60
2016,08,26,00,55,17.60
2016,08,26,00,56,17.70
2016,08,26,00,57,17.70
2016,08,26,00,58,17.70
2016,08,26,00,59,17.70
2016,08,26,01,00,17.70
2016,08,26,01,01,17.70
2016,08,26,01,02,17.60
2016,08,26,01,03,17.60
2016,08,26,01,04,17.50
2016,08,26,01,05,17.40
2016,08,26,01,06,17.40
2016,08,26,01,07,17.30
2016,08,26,01,08,17.20
2016,08,26,01,09,17.20
2016,08,26,01,10,17.10
2016,08,26,01,11,17.00
2016,08,26,01,12,16.90
2016,08,26,01,13,16.80
2016,08,26,01,14,16.70
2016,08,26,01,15,16.70
2016,08,26,01,16,16.60
2016,08,26,01,17,16.60
2016,08,26,01,18,16.50
2016,08,26,01,19,16.50
2016,08,26,01,20,16.50
2016,08,26,01,21,16.50
2016,08,26,01,22,16.50
2016,08,26,01,23,16.50
2016,08,26,01,24,16.50
2016,08,26,01,25,16.50
2016,08,26,01,26,16.60
2016,08,26,01,27,16.60
2016,08,26,01,28,16.60
2016,08,26,01,29,16.60
2016,08,26,01,30,16.60
2016,08,26,01,31,16.60
2016,08,26,01,32,16.70
2016,08,26,01,33,16.60
2016,08,26,01,34,16.70
2016,08,26,01,35,16.70
2016,08,26,01,36,16.70
2016,08,26,01,37,16.70
2016,08,26,01,38,16.70
2016,08,26,01,39,16.70
2016,08,26,01,40,16.70
2016,08,26,01,41,16.70
2016,08,26,01,42,16.70
2016,08,26,01,43,16.70
2016,08,26,01,44,16.70
2016,08,26,01,45,16.70
2016,08,26,01,46,16.70
2016,08,26,01,47,16.70
2016,08,26,01,48,16.80
2016,08,26,01,49,16.80
2016,08,26,01,50,16.80
2016,08,26,01,51,16.80
2016,08,26,01,52,16.80
2016,08,26,01,53,16.80
2016,08,26,01,54,16.90
2016,08,26,01,55,16.90
2016,08,26,01,56,16.90
2016,08,26,01,57,17.00
2016,08,26,01,58,17.00
2016,08,26,01,59,17.00
2016,08,26,02,00,17.00
2016,08,26,02,01,17.00
2016,08,26,02,02,16.90
2016,08,26,02,03,16.90
2016,08,26,02,04,16.90
2016,08,26,02,05,16.90
2016,08,26,02,06,16.90
2016,08,26,02,07,16.80
2016,08,26,02,08,16.80
2016,08,26,02,09,16.80
2016,08,26,02,10,16.80
2016,08,26,02,11,16.80
2016,08,26,02,12,16.80
2016,08,26,02,13,16.80
2016,08,26,02,14,16.80
2016,08,26,02,15,16.80
2016,08,26,02,16,16.80
2016,08,26,02,17,16.80
2016,08,26,02,18,16.80
2016,08,26,02,19,16.80
2016,08,26,02,20,16.80
2016,08,26,02,21,16.80
2016,08,26,02,22,16.80
2016,08,26,02,23,16.70
2016,08,26,02,24,16.70
2016,08,26,02,25,16.70
2016,08,26,02,26,16.70
2016,08,26,02,27,16.60
2016,08,26,02,28,16.60
2016,08,26,02,29,16.60
2016,08,26,02,30,16.60
2016,08,26,02,31,16.60
2016,08,26,02,32,16.70
2016,08,26,02,33,16.70
2016,08,26,02,34,16.80
2016,08,26,02,35,16.80
2016,08,26,02,36,16.80
2016,08,26,02,37,16.80
2016,08,26,02,38,16.80
2016,08,26,02,39,16.70
2016,08,26,02,40,16.70
2016,08,26,02,41,16.70
2016,08,26,02,42,16.70
2016,08,26,02,43,16.70
2016,08,26,02,44,16.70
2016,08,26,02,45,16.70
2016,08,26,02,46,16.70
2016,08,26,02,47,16.70
2016,08,26,02,48,16.70
2016,08,26,02,49,16.70
2016,08,26,02,50,16.80
2016,08,26,02,51,16.80
2016,08,26,02,52,16.80
2016,08,26,02,53,16.90
2016,08,26,02,54,16.90
2016,08,26,02,55,16.90
2016,08,26,02,56,17.00
2016,08,26,02,57,17.00
2016,08,26,02,58,17.00
2016,08,26,02,59,17.00
2016,08,26,03,00,17.10
2016,08,26,03,01,17.10
2016,08,26,03,02,17.10
2016,08,26,03,03,17.10
2016,08,26,03,04,17.10
2016,08,26,03,05,17.10
2016,08,26,03,06,17.10
2016,08,26,03,07,17.00
2016,08,26,03,08,17.00
2016,08,26,03,09,17.00
2016,08,26,03,10,17.00
2016,08,26,03,11,16.90
2016,08,26,03,12,16.90
2016,08,26,03,13,16.90
2016,08,26,03,14,16.80
2016,08,26,03,15,16.80
2016,08,26,03,16,16.80
2016,08,26,03,17,16.80
2016,08,26,03,18,16.80
2016,08,26,03,19,16.80
2016,08,26,03,20,16.80
2016,08,26,03,21,16.70
2016,08,26,03,22,16.70
2016,08,26,03,23,16.70
2016,08,26,03,24,16.60
2016,08,26,03,25,16.60
2016,08,26,03,26,16.60
2016,08,26,03,27,16.50
2016,08,26,03,28,16.50
2016,08,26,03,29,16.40
2016,08,26,03,30,16.40
2016,08,26,03,31,16.40
2016,08,26,03,32,16.30
2016,08,26,03,33,16.30
2016,08,26,03,34,16.30
2016,08,26,03,35,16.30
2016,08,26,03,36,16.20
2016,08,26,03,37,16.20
2016,08,26,03,38,16.20
2016,08,26,03,39,16.20
2016,08,26,03,40,16.20
2016,08,26,03,41,16.10
2016,08,26,03,42,16.10
2016,08,26,03,43,16.10
2016,08,26,03,44,16.10
2016,08,26,03,45,16.10
2016,08,26,03,46,16.10
2016,08,26,03,47,16.00
2016,08,26,03,48,16.00
2016,08,26,03,49,16.00
2016,08,26,03,50,15.90
2016,08,26,03,51,15.90
2016,08,26,03,52,15.90
2016,08,26,03,53,15.80
2016,08,26,03,54,15.80
2016,08,26,03,55,15.80
2016,08,26,03,56,15.80
2016,08,26,03,57,15.80
2016,08,26,03,58,15.80
2016,08,26,03,59,15.80
2016,08,26,04,00,15.80
2016,08,26,04,01,15.80
2016,08,26,04,02,15.80
2016,08,26,04,03,15.80
2016,08,26,04,04,15.80
2016,08,26,04,05,15.80
2016,08,26,04,06,15.80
2016,08,26,04,07,15.80
2016,08,26,04,08,15.80
2016,08,26,04,09,15.80
2016,08,26,04,10,15.80
2016,08,26,04,11,15.80
2016,08,26,04,12,15.80
2016,08,26,04,13,15.80
2016,08,26,04,14,15.80
2016,08,26,04,15,15.90
2016,08,26,04,16,15.90
2016,08,26,04,17,15.90
2016,08,26,04,18,15.90
2016,08,26,04,19,15.90
2016,08,26,04,20,15.80
2016,08,26,04,21,15.80
2016,08,26,04,22,15.80
2016,08,26,04,23,15.80
2016,08,26,04,24,15.80
2016,08,26,04,25,15.80
2016,08,26,04,26,15.80
2016,08,26,04,27,15.80
2016,08,26,04,28,15.80
2016,08,26,04,29,15.80
2016,08,26,04,30,15.70
2016,08,26,04,31,15.70
2016,08,26,04,32,15.70
2016,08,26,04,33,15.70
2016,08,26,04,34,15.70
2016,08,26,04,35,15.70
2016,08,26,04,36,15.70
2016,08,26,04,37,15.70
2016,08,26,04,38,15.70
2016,08,26,04,39,15.70
2016,08,26,04,40,15.70
2016,08,26,04,41,15.70
2016,08,26,04,42,15.70
2016,08,26,04,43,15.70
2016,08,26,04,44,15.70
2016,08,26,04,45,15.70
2016,08,26,04,46,15.70
2016,08,26,04,47,15.70
2016,08,26,04,48,15.70
2016,08,26,04,49,15.80
2016,08,26,04,50,15.80
2016,08,26,04,51,15.80
2016,08,26,04,52,15.90
2016,08,26,04,53,15.90
2016,08,26,04,54,15.90
2016,08,26,04,55,15.90
2016,08,26,04,56,15.80
2016,08,26,04,57,15.80
2016,08,26,04,58,15.80
2016,08,26,04,59,15.80
2016,08,26,05,00,15.80
2016,08,26,05,01,15.80
2016,08,26,05,02,15.80
2016,08,26,05,03,15.80
2016,08,26,05,04,15.70
2016,08,26,05,05,15.70
2016,08,26,05,06,15.70
2016,08,26,05,07,15.70
2016,08,26,05,08,15.70
2016,08,26,05,09,15.70
2016,08,26,05,10,15.70
2016,08,26,05,11,15.70
2016,08,26,05,12,15.70
2016,08,26,05,13,15.70
2016,08,26,05,14,15.70
2016,08,26,05,15,15.60
2016,08,26,05,16,15.60
2016,08,26,05,17,15.60
2016,08,26,05,18,15.60
2016,08,26,05,19,15.60
2016,08,26,05,20,15.60
2016,08,26,05,21,15.60
2016,08,26,05,22,15.60
2016,08,26,05,23,15.60
2016,08,26,05,24,15.60
2016,08,26,05,25,15.60
2016,08,26,05,26,15.60
2016,08,26,05,27,15.60
2016,08,26,05,28,15.60
2016,08,26,05,29,15.50
2016,08,26,05,30,15.50
2016,08,26,05,31,15.50
2016,08,26,05,32,15.50
2016,08,26,05,33,15.50
2016,08,26,05,34,15.50
2016,08,26,05,35,15.50
2016,08,26,05,36,15.60
2016,08,26,05,37,15.60
2016,08,26,05,38,15.60
2016,08,26,05,39,15.60
2016,08,26,05,40,15.60
2016,08,26,05,41,15.70
2016,08,26,05,42,15.70
2016,08,26,05,43,15.70
2016,08,26,05,44,15.70
2016,08,26,05,45,15.70
2016,08,26,05,46,15.70
2016,08,26,05,47,15.70
2016,08,26,05,48,15.70
2016,08,26,05,49,15.70
2016,08,26,05,50,15.70
2016,08,26,05,51,15.70
2016,08,26,05,52,15.70
2016,08,26,05,53,15.70
2016,08,26,05,54,15.70
2016,08,26,05,55,15.70
2016,08,26,05,56,15.70
2016,08,26,05,57,15.70
2016,08,26,05,58,15.60
2016,08,26,05,59,15.60
2016,08,26,06,00,15.60
2016,08,26,06,01,15.60
2016,08,26,06,02,15.60
2016,08,26,06,03,15.60
2016,08,26,06,04,15.70
2016,08,26,06,05,15.70
2016,08,26,06,06,15.70
2016,08,26,06,07,15.70
2016,08,26,06,08,15.80
2016,08,26,06,09,15.80
2016,08,26,06,10,15.80
2016,08,26,06,11,15.80
2016,08,26,06,12,15.80
2016,08,26,06,13,15.80
2016,08,26,06,14,15.80
2016,08,26,06,15,15.80
2016,08,26,06,16,15.80
2016,08,26,06,17,15.80
2016,08,26,06,18,15.80
2016,08,26,06,19,15.80
2016,08,26,06,20,15.80
2016,08,26,06,21,15.80
2016,08,26,06,22,15.80
2016,08,26,06,23,15.80
2016,08,26,06,24,15.80
2016,08,26,06,25,15.70
2016,08,26,06,26,15.70
2016,08,26,06,27,15.70
2016,08,26,06,28,15.70
2016,08,26,06,29,15.70
2016,08,26,06,30,15.70
2016,08,26,06,31,15.60
2016,08,26,06,32,15.60
2016,08,26,06,33,15.60
2016,08,26,06,34,15.60
2016,08,26,06,35,15.60
2016,08,26,06,36,15.60
2016,08,26,06,37,15.60
2016,08,26,06,38,15.60
2016,08,26,06,39,15.60
2016,08,26,06,40,15.60
2016,08,26,06,41,15.60
2016,08,26,06,42,15.60
2016,08,26,06,43,15.60
2016,08,26,06,44,15.50
2016,08,26,06,45,15.50
2016,08,26,06,46,15.50
2016,08,26,06,47,15.50
2016,08,26,06,48,15.50
2016,08,26,06,49,15.50
2016,08,26,06,50,15.40
2016,08,26,06,51,15.40
2016,08,26,06,52,15.40
2016,08,26,06,53,15.40
2016,08,26,06,54,15.40
2016,08,26,06,55,15.40
2016,08,26,06,56,15.40
2016,08,26,06,57,15.40
2016,08,26,06,58,15.30
2016,08,26,06,59,15.30
2016,08,26,07,00,15.30
2016,08,26,07,01,15.30
2016,08,26,07,02,15.30
2016,08,26,07,03,15.30
2016,08,26,07,04,15.30
2016,08,26,07,05,15.30
2016,08,26,07,06,15.30
2016,08,26,07,07,15.30
2016,08,26,07,08,15.30
2016,08,26,07,09,15.30
2016,08,26,07,10,15.30
2016,08,26,07,11,15.30
2016,08,26,07,12,15.30
2016,08,26,07,13,15.30
2016,08,26,07,14,15.30
2016,08,26,07,15,15.40
2016,08,26,07,16,15.40
2016,08,26,07,17,15.40
2016,08,26,07,18,15.40
2016,08,26,07,19,15.50
2016,08,26,07,20,15.50
2016,08,26,07,21,15.50
2016,08,26,07,22,15.50
2016,08,26,07,23,15.50
2016,08,26,07,24,15.60
2016,08,26,07,25,15.60
2016,08,26,07,26,15.60
2016,08,26,07,27,15.60
2016,08,26,07,28,15.70
2016,08,26,07,29,15.70
2016,08,26,07,30,15.70
2016,08,26,07,31,15.70
2016,08,26,07,32,15.70
2016,08,26,07,33,15.70
2016,08,26,07,34,15.70
2016,08,26,07,35,15.70
2016,08,26,07,36,15.70
2016,08,26,07,37,15.70
2016,08,26,07,38,15.70
2016,08,26,07,39,15.70
2016,08,26,07,40,15.70
2016,08,26,07,41,15.70
2016,08,26,07,42,15.70
2016,08,26,07,43,15.80
2016,08,26,07,44,15.80
2016,08,26,07,45,15.80
2016,08,26,07,46,15.90
2016,08,26,07,47,15.90
2016,08,26,07,48,15.90
2016,08,26,07,49,15.90
2016,08,26,07,50,16.00
2016,08,26,07,51,16.00
2016,08,26,07,52,16.10
2016,08,26,07,53,16.10
2016,08,26,07,54,16.10
2016,08,26,07,55,16.20
2016,08,26,07,56,16.20
2016,08,26,07,57,16.20
2016,08,26,07,58,16.20
2016,08,26,07,59,16.20
2016,08,26,08,00,16.30
2016,08,26,08,01,16.30
2016,08,26,08,02,16.30
2016,08,26,08,03,16.30
2016,08,26,08,04,16.30
2016,08,26,08,05,16.40
2016,08,26,08,06,16.40
2016,08,26,08,07,16.40
2016,08,26,08,08,16.40
2016,08,26,08,09,16.40
2016,08,26,08,10,16.50
2016,08,26,08,11,16.50
2016,08,26,08,12,16.60
2016,08,26,08,13,16.60
2016,08,26,08,14,16.70
2016,08,26,08,15,16.70
2016,08,26,08,16,16.70
2016,08,26,08,17,16.80
2016,08,26,08,18,16.80
2016,08,26,08,19,16.80
2016,08,26,08,20,16.90
2016,08,26,08,21,16.90
2016,08,26,08,22,16.90
2016,08,26,08,23,16.90
2016,08,26,08,24,17.00
2016,08,26,08,25,17.00
2016,08,26,08,26,17.00
2016,08,26,08,27,17.00
2016,08,26,08,28,17.10
2016,08,26,08,29,17.10
2016,08,26,08,30,17.00
2016,08,26,08,31,17.00
2016,08,26,08,32,17.00
2016,08,26,08,33,16.90
2016,08,26,08,34,16.90
2016,08,26,08,35,16.90
2016,08,26,08,36,16.90
2016,08,26,08,37,16.90
2016,08,26,08,38,16.90
2016,08,26,08,39,16.90
2016,08,26,08,40,16.80
2016,08,26,08,41,16.80
2016,08,26,08,42,16.80
2016,08,26,08,43,16.80
2016,08,26,08,44,16.70
2016,08,26,08,45,16.70
2016,08,26,08,46,16.70
2016,08,26,08,47,16.70
2016,08,26,08,48,16.60
2016,08,26,08,49,16.60
2016,08,26,08,50,16.60
2016,08,26,08,51,16.60
2016,08,26,08,52,16.60
2016,08,26,08,53,16.60
2016,08,26,08,54,16.60
2016,08,26,08,55,16.60
2016,08,26,08,56,16.50
2016,08,26,08,57,16.50
2016,08,26,08,58,16.50
2016,08,26,08,59,16.50
2016,08,26,09,00,16.50
2016,08,26,09,01,16.40
2016,08,26,09,02,16.40
2016,08,26,09,03,16.40
2016,08,26,09,04,16.30
2016,08,26,09,05,16.30
2016,08,26,09,06,16.20
2016,08,26,09,07,16.20
2016,08,26,09,08,16.30
2016,08,26,09,09,16.30
2016,08,26,09,10,16.30
2016,08,26,09,11,16.30
2016,08,26,09,12,16.30
2016,08,26,09,13,16.40
2016,08,26,09,14,16.40
2016,08,26,09,15,16.40
2016,08,26,09,16,16.40
2016,08,26,09,17,16.40
2016,08,26,09,18,16.40
2016,08,26,09,19,16.40
2016,08,26,09,20,16.40
2016,08,26,09,21,16.40
2016,08,26,09,22,16.50
2016,08,26,09,23,16.50
2016,08,26,09,24,16.60
2016,08,26,09,25,16.60
2016,08,26,09,26,16.60
2016,08,26,09,27,16.60
2016,08,26,09,28,16.60
2016,08,26,09,29,16.70
2016,08,26,09,30,16.70
2016,08,26,09,31,16.70
2016,08,26,09,32,16.80
2016,08,26,09,33,16.80
2016,08,26,09,34,16.90
2016,08,26,09,35,16.90
2016,08,26,09,36,17.00
2016,08,26,09,37,17.00
2016,08,26,09,38,17.00
2016,08,26,09,39,17.00
2016,08,26,09,40,17.10
2016,08,26,09,41,17.10
2016,08,26,09,42,17.10
2016,08,26,09,43,17.10
2016,08,26,09,44,17.20
2016,08,26,09,45,17.20
2016,08,26,09,46,17.20
2016,08,26,09,47,17.20
2016,08,26,09,48,17.20
2016,08,26,09,49,17.30
2016,08,26,09,50,17.30
2016,08,26,09,51,17.30
2016,08,26,09,52,17.40
2016,08,26,09,53,17.40
2016,08,26,09,54,17.50
2016,08,26,09,55,17.50
2016,08,26,09,56,17.50
2016,08,26,09,57,17.50
2016,08,26,09,58,17.60
2016,08,26,09,59,17.60
2016,08,26,10,00,17.60
2016,08,26,10,01,17.60
2016,08,26,10,02,17.60
2016,08,26,10,03,17.60
2016,08,26,10,04,17.50
2016,08,26,10,05,17.50
2016,08,26,10,06,17.50
2016,08,26,10,07,17.50
2016,08,26,10,08,17.50
2016,08,26,10,09,17.50
2016,08,26,10,10,17.50
2016,08,26,10,11,17.50
2016,08,26,10,12,17.60
2016,08,26,10,13,17.60
2016,08,26,10,14,17.60
2016,08,26,10,15,17.70
2016,08,26,10,16,17.70
2016,08,26,10,17,17.70
2016,08,26,10,18,17.80
2016,08,26,10,19,17.80
2016,08,26,10,20,17.80
2016,08,26,10,21,17.80
2016,08,26,10,22,17.90
2016,08,26,10,23,17.90
2016,08,26,10,24,17.90
2016,08,26,10,25,17.90
2016,08,26,10,26,17.90
2016,08,26,10,27,17.90
2016,08,26,10,28,17.90
2016,08,26,10,29,18.00
2016,08,26,10,30,18.00
2016,08,26,10,31,18.10
2016,08,26,10,32,18.10
2016,08,26,10,33,18.20
2016,08,26,10,34,18.30
2016,08,26,10,35,18.30
2016,08,26,10,36,18.40
2016,08,26,10,37,18.40
2016,08,26,10,38,18.40
2016,08,26,10,39,18.50
2016,08,26,10,40,18.60
2016,08,26,10,41,18.60
2016,08,26,10,42,18.70
2016,08,26,10,43,18.80
2016,08,26,10,44,18.80
2016,08,26,10,45,18.90
2016,08,26,10,46,19.00
2016,08,26,10,47,19.00
2016,08,26,10,48,19.10
2016,08,26,10,49,19.10
2016,08,26,10,50,19.10
2016,08,26,10,51,19.20
2016,08,26,10,52,19.20
2016,08,26,10,53,19.20
2016,08,26,10,54,19.30
2016,08,26,10,55,19.30
2016,08,26,10,56,19.40
2016,08,26,10,57,19.50
2016,08,26,10,58,19.60
2016,08,26,10,59,19.70
2016,08,26,11,00,19.70
2016,08,26,11,01,19.80
2016,08,26,11,02,19.80
2016,08,26,11,03,19.80
2016,08,26,11,04,19.80
2016,08,26,11,05,19.90
2016,08,26,11,06,19.90
2016,08,26,11,07,19.80
2016,08,26,11,08,19.80
2016,08,26,11,09,19.80
2016,08,26,11,10,19.80
2016,08,26,11,11,19.70
2016,08,26,11,12,19.60
2016,08,26,11,13,19.50
2016,08,26,11,14,19.40
2016,08,26,11,15,19.30
2016,08,26,11,16,19.20
2016,08,26,11,17,19.20
2016,08,26,11,18,19.10
2016,08,26,11,19,19.10
2016,08,26,11,20,19.00
2016,08,26,11,21,18.90
2016,08,26,11,22,18.90
2016,08,26,11,23,18.90
2016,08,26,11,24,18.90
2016,08,26,11,25,18.90
2016,08,26,11,26,18.90
2016,08,26,11,27,18.90
2016,08,26,11,28,18.90
2016,08,26,11,29,19.00
2016,08,26,11,30,19.00
2016,08,26,11,31,19.00
2016,08,26,11,32,19.10
2016,08,26,11,33,19.10
2016,08,26,11,34,19.10
2016,08,26,11,35,19.20
2016,08,26,11,36,19.20
2016,08,26,11,37,19.30
2016,08,26,11,38,19.40
2016,08,26,11,39,19.50
2016,08,26,11,40,19.50
2016,08,26,11,41,19.60
2016,08,26,11,42,19.70
2016,08,26,11,43,19.80
2016,08,26,11,44,19.90
2016,08,26,11,45,19.90
2016,08,26,11,46,20.00
2016,08,26,11,47,20.10
2016,08,26,11,48,20.10
2016,08,26,11,49,20.10
2016,08,26,11,50,20.10
2016,08,26,11,51,20.20
2016,08,26,11,52,20.20
2016,08,26,11,53,20.30
2016,08,26,11,54,20.30
2016,08,26,11,55,20.30
2016,08,26,11,56,20.40
2016,08,26,11,57,20.40
2016,08,26,11,58,20.40
2016,08,26,11,59,20.30
2016,08,26,12,00,20.30
2016,08,26,12,01,20.20
2016,08,26,12,02,20.20
2016,08,26,12,03,20.30
2016,08,26,12,04,20.30
2016,08,26,12,05,20.30
2016,08,26,12,06,20.30
2016,08,26,12,07,20.30
2016,08,26,12,08,20.30
2016,08,26,12,09,20.40
2016,08,26,12,10,20.40
2016,08,26,12,11,20.50
2016,08,26,12,12,20.50
2016,08,26,12,13,20.60
2016,08,26,12,14,20.60
2016,08,26,12,15,20.70
2016,08,26,12,16,20.80
2016,08,26,12,17,20.90
2016,08,26,12,18,21.10
2016,08,26,12,19,21.20
2016,08,26,12,20,21.30
2016,08,26,12,21,21.40
2016,08,26,12,22,21.40
2016,08,26,12,23,21.40
2016,08,26,12,24,21.50
2016,08,26,12,25,21.50
2016,08,26,12,26,21.60
2016,08,26,12,27,21.70
2016,08,26,12,28,21.80
2016,08,26,12,29,21.90
2016,08,26,12,30,22.00
2016,08,26,12,31,22.10
2016,08,26,12,32,22.30
2016,08,26,12,33,22.40
2016,08,26,12,34,22.50
2016,08,26,12,35,22.60
2016,08,26,12,36,22.70
2016,08,26,12,37,22.80
2016,08,26,12,38,22.90
2016,08,26,12,39,22.90
2016,08,26,12,40,23.00
2016,08,26,12,41,23.10
2016,08,26,12,42,23.10
2016,08,26,12,43,23.20
2016,08,26,12,44,23.30
2016,08,26,12,45,23.40
2016,08,26,12,46,23.50
2016,08,26,12,47,23.60
2016,08,26,12,48,23.80
2016,08,26,12,49,23.90
2016,08,26,12,50,24.10
2016,08,26,12,51,24.20
2016,08,26,12,52,24.30
2016,08,26,12,53,24.30
2016,08,26,12,54,24.30
2016,08,26,12,55,24.40
2016,08,26,12,56,24.40
2016,08,26,12,57,24.50
2016,08,26,12,58,24.50
2016,08,26,12,59,24.50
2016,08,26,13,00,24.40
2016,08,26,13,01,24.50
2016,08,26,13,02,24.50
2016,08,26,13,03,24.60
2016,08,26,13,04,24.60
2016,08,26,13,05,24.60
2016,08,26,13,06,24.60
2016,08,26,13,07,24.70
2016,08,26,13,08,24.70
2016,08,26,13,09,24.80
2016,08,26,13,10,24.80
2016,08,26,13,11,24.80
2016,08,26,13,12,24.90
2016,08,26,13,13,24.90
2016,08,26,13,14,24.90
2016,08,26,13,15,24.90
2016,08,26,13,16,25.00
2016,08,26,13,17,25.00
2016,08,26,13,18,25.00
2016,08,26,13,19,25.00
2016,08,26,13,20,25.00
2016,08,26,13,21,24.90
2016,08,26,13,22,24.90
2016,08,26,13,23,24.90
2016,08,26,13,24,24.90
2016,08,26,13,25,24.90
2016,08,26,13,26,24.90
2016,08,26,13,27,24.90
2016,08,26,13,28,24.90
2016,08,26,13,29,25.00
2016,08,26,13,30,25.10
2016,08,26,13,31,25.10
2016,08,26,13,32,25.20
2016,08,26,13,33,25.30
2016,08,26,13,34,25.40
2016,08,26,13,35,25.50
2016,08,26,13,36,25.60
2016,08,26,13,37,25.70
2016,08,26,13,38,25.80
2016,08,26,13,39,25.90
2016,08,26,13,40,26.00
2016,08,26,13,41,26.00
2016,08,26,13,42,26.00
2016,08,26,13,43,26.00
2016,08,26,13,44,25.90
2016,08,26,13,45,25.90
2016,08,26,13,46,25.80
2016,08,26,13,47,25.80
2016,08,26,13,48,25.80
2016,08,26,13,49,25.80
2016,08,26,13,50,25.70
2016,08,26,13,51,25.70
2016,08,26,13,52,25.60
2016,08,26,13,53,25.60
2016,08,26,13,54,25.60
2016,08,26,13,55,25.50
2016,08,26,13,56,25.50
2016,08,26,13,57,25.50
2016,08,26,13,58,25.40
2016,08,26,13,59,25.40
2016,08,26,14,00,25.40
2016,08,26,14,01,25.40
2016,08,26,14,02,25.40
2016,08,26,14,03,25.40
2016,08,26,14,04,25.40
2016,08,26,14,05,25.50
2016,08,26,14,06,25.50
2016,08,26,14,07,25.50
2016,08,26,14,08,25.50
2016,08,26,14,09,25.50
2016,08,26,14,10,25.50
2016,08,26,14,11,25.60
2016,08,26,14,12,25.60
2016,08,26,14,13,25.60
2016,08,26,14,14,25.60
2016,08,26,14,15,25.50
2016,08,26,14,16,25.40
2016,08,26,14,17,25.40
2016,08,26,14,18,25.30
2016,08,26,14,19,25.30
2016,08,26,14,20,25.30
2016,08,26,14,21,25.30
2016,08,26,14,22,25.40
2016,08,26,14,23,25.50
2016,08,26,14,24,25.60
2016,08,26,14,25,25.70
2016,08,26,14,26,25.70
2016,08,26,14,27,25.80
2016,08,26,14,28,25.80
2016,08,26,14,29,25.90
2016,08,26,14,30,25.90
2016,08,26,14,31,25.90
2016,08,26,14,32,25.90
2016,08,26,14,33,26.00
2016,08,26,14,34,26.00
2016,08,26,14,35,26.00
2016,08,26,14,36,26.00
2016,08,26,14,37,26.00
2016,08,26,14,38,26.10
2016,08,26,14,39,26.20
2016,08,26,14,40,26.20
2016,08,26,14,41,26.30
2016,08,26,14,42,26.30
2016,08,26,14,43,26.30
2016,08,26,14,44,26.40
2016,08,26,14,45,26.40
2016,08,26,14,46,26.40
2016,08,26,14,47,26.40
2016,08,26,14,48,26.40
2016,08,26,14,49,26.40
2016,08,26,14,50,26.30
2016,08,26,14,51,26.30
2016,08,26,14,52,26.30
2016,08,26,14,53,26.20
2016,08,26,14,54,26.20
2016,08,26,14,55,26.10
2016,08,26,14,56,26.10
2016,08,26,14,57,26.10
2016,08,26,14,58,26.10
2016,08,26,14,59,26.10
2016,08,26,15,00,26.10
2016,08,26,15,01,26.10
2016,08,26,15,02,26.20
2016,08,26,15,03,26.20
2016,08,26,15,04,26.30
2016,08,26,15,05,26.40
2016,08,26,15,06,26.50
2016,08,26,15,07,26.60
2016,08,26,15,08,26.70
2016,08,26,15,09,26.70
2016,08,26,15,10,26.80
2016,08,26,15,11,26.80
2016,08,26,15,12,26.80
2016,08,26,15,13,26.70
2016,08,26,15,14,26.70
2016,08,26,15,15,26.60
2016,08,26,15,16,26.60
2016,08,26,15,17,26.60
2016,08,26,15,18,26.60
2016,08,26,15,19,26.60
2016,08,26,15,20,26.50
2016,08,26,15,21,26.40
2016,08,26,15,22,26.40
2016,08,26,15,23,26.30
2016,08,26,15,24,26.30
2016,08,26,15,25,26.30
2016,08,26,15,26,26.20
2016,08,26,15,27,26.20
2016,08,26,15,28,26.20
2016,08,26,15,29,26.20
2016,08,26,15,30,26.30
2016,08,26,15,31,26.30
2016,08,26,15,32,26.30
2016,08,26,15,33,26.30
2016,08,26,15,34,26.30
2016,08,26,15,35,26.30
2016,08,26,15,36,26.30
2016,08,26,15,37,26.30
2016,08,26,15,38,26.30
2016,08,26,15,39,26.30
2016,08,26,15,40,26.30
2016,08,26,15,41,26.20
2016,08,26,15,42,26.20
2016,08,26,15,43,26.10
2016,08,26,15,44,26.00
2016,08,26,15,45,26.00
2016,08,26,15,46,25.90
2016,08,26,15,47,25.90
2016,08,26,15,48,25.90
2016,08,26,15,49,25.90
2016,08,26,15,50,25.90
2016,08,26,15,51,25.90
2016,08,26,15,52,25.90
2016,08,26,15,53,25.90
2016,08,26,15,54,25.90
2016,08,26,15,55,25.70
2016,08,26,15,56,25.60
2016,08,26,15,57,25.40
2016,08,26,15,58,25.30
2016,08,26,15,59,25.10
2016,08,26,16,00,25.00
2016,08,26,16,01,25.00
2016,08,26,16,02,24.90
2016,08,26,16,03,24.90
2016,08,26,16,04,25.00
2016,08,26,16,05,25.00
2016,08,26,16,06,25.10
2016,08,26,16,07,25.10
2016,08,26,16,08,25.20
2016,08,26,16,09,25.20
2016,08,26,16,10,25.30
2016,08,26,16,11,25.30
2016,08,26,16,12,25.30
2016,08,26,16,13,25.30
2016,08,26,16,14,25.40
2016,08,26,16,15,25.40
2016,08,26,16,16,25.40
2016,08,26,16,17,25.50
2016,08,26,16,18,25.50
2016,08,26,16,19,25.60
2016,08,26,16,20,25.70
2016,08,26,16,21,25.70
2016,08,26,16,22,25.80
2016,08,26,16,23,25.90
2016,08,26,16,24,26.00
2016,08,26,16,25,26.10
2016,08,26,16,26,26.30
2016,08,26,16,27,26.30
2016,08,26,16,28,26.40
2016,08,26,16,29,26.50
2016,08,26,16,30,26.60
2016,08,26,16,31,26.70
2016,08,26,16,32,26.80
2016,08,26,16,33,26.90
2016,08,26,16,34,27.00
2016,08,26,16,35,27.00
2016,08,26,16,36,27.10
2016,08,26,16,37,27.20
2016,08,26,16,38,27.20
2016,08,26,16,39,27.30
2016,08,26,16,40,27.40
2016,08,26,16,41,27.50
2016,08,26,16,42,27.60
2016,08,26,16,43,27.60
2016,08,26,16,44,27.60
2016,08,26,16,45,27.60
2016,08,26,16,46,27.70
2016,08,26,16,47,27.70
2016,08,26,16,48,27.80
2016,08,26,16,49,27.80
2016,08,26,16,50,27.90
2016,08,26,16,51,28.00
2016,08,26,16,52,28.00
2016,08,26,16,53,28.10
2016,08,26,16,54,28.20
2016,08,26,16,55,28.20
2016,08,26,16,56,28.20
2016,08,26,16,57,28.20
2016,08,26,16,58,28.30
2016,08,26,16,59,28.30
2016,08,26,17,00,28.30
2016,08,26,17,01,28.20
2016,08,26,17,02,28.10
2016,08,26,17,03,28.00
2016,08,26,17,04,27.80
2016,08,26,17,05,27.60
2016,08,26,17,06,27.40
2016,08,26,17,07,27.10
2016,08,26,17,08,26.80
2016,08,26,17,09,26.50
2016,08,26,17,10,26.30
2016,08,26,17,11,26.10
2016,08,26,17,12,25.90
2016,08,26,17,13,25.80
2016,08,26,17,14,25.70
2016,08,26,17,15,25.60
2016,08,26,17,16,25.60
2016,08,26,17,17,25.60
2016,08,26,17,18,25.60
2016,08,26,17,19,25.60